Location: Gourdan-Polignan
(43.0709°N, 0.5748°E)
Time: 12:04:26
(UTC+00:00)

USA 234 - Pass Details

Date: 15 May 2026
Orbit: 1102 x 1106 km, 123.0° (Epoch: 4 January)

Event Time Altitude Azimuth Distance (km) Brightness Sun altitude
Rises 22:41:45 0° 53° (NE) 3,924 6.4 -25.7°
Reaches altitude 10° 22:44:24 10° 60° (ENE) 2,964 5.6 -25.8°
Enters shadow 22:49:36 40° 109° (ESE) 1,571 3.8 -26.1°
